This is the latest recevied weather packets stored in our database for station/object ON7XX-13. If no packets are shown the sender has not sent any weather packets the latest 10 day(s).
| Time | Temp. | Humidity | Pressure | Rain* | Wind** | Luminosity | Snow |
|---|---|---|---|---|---|---|---|
| 1777977488 | 18.89° C | 64% | 1012.1 hPa | - | - | - | - |
| 1777976874 | 18.33° C | 65% | 1012.1 hPa | - | - | - | - |
| 1777975645 | 18.33° C | 66% | 1012.3 hPa | - | - | - | - |
| 1777975030 | 17.78° C | 69% | 1012.2 hPa | - | - | - | - |
| 1777974416 | 17.22° C | 70% | 1012.3 hPa | - | - | - | - |
| 1777973802 | 16.67° C | 71% | 1012.3 hPa | - | - | - | - |
| 1777973188 | 16.11° C | 73% | 1012.4 hPa | - | - | - | - |
| 1777972574 | 16.11° C | 74% | 1012.5 hPa | - | - | - | - |
| 1777971959 | 15.56° C | 77% | 1012.6 hPa | - | - | - | - |
| 1777971346 | 15° C | 78% | 1012.6 hPa | - | - | - | - |
| 1777970731 | 14.44° C | 80% | 1012.7 hPa | - | - | - | - |
| 1777970117 | 13.89° C | 82% | 1012.7 hPa | - | - | - | - |
| 1777969503 | 13.89° C | 85% | 1012.7 hPa | - | - | - | - |
| 1777968889 | 13.89° C | 86% | 1012.7 hPa | - | - | - | - |
| 1777967660 | 13.33° C | 88% | 1012.8 hPa | - | - | - | - |
| 1777967046 | 13.33° C | 88% | 1012.8 hPa | - | - | - | - |
| 1777966432 | 13.33° C | 88% | 1012.8 hPa | - | - | - | - |
| 1777965817 | 13.33° C | 88% | 1012.9 hPa | - | - | - | - |
| 1777965203 | 13.33° C | 88% | 1012.9 hPa | - | - | - | - |
| 1777964589 | 12.78° C | 88% | 1013 hPa | - | - | - | - |
| 1777963975 | 12.78° C | 89% | 1013.1 hPa | - | - | - | - |
| 1777963361 | 12.78° C | 88% | 1013.2 hPa | - | - | - | - |
| 1777962746 | 12.78° C | 89% | 1013.1 hPa | - | - | - | - |
| 1777962132 | 12.78° C | 89% | 1013.1 hPa | - | - | - | - |
| 1777961518 | 12.78° C | 90% | 1013 hPa | - | - | - | - |
* Rain since midnight (hover to see other rain measurements)
** Current wind speed in m/s (hover to see current wind gust speed)